Regional Weather Roundup
Issued by NWS

Home | Current Version | Previous Version | Graphics & Text | Print | Product List | Glossary On
Versions: 1 2 3 4 5 6 7 8 9 10 11 12 13 14 15 16 17 18 19 20 21 22 23 24 25 26 27 28 29 30 31 32 33 34 35 36 37 38 39 40 41 42 43 44 45 46 47 48 49 50
000
ASUS43 KIND 041309
RWRIN

WEATHER ROUNDUP FOR INDIANA
NATIONAL WEATHER SERVICE INDIANAPOLIS IN
900 AM EDT FRI SEP 04 2015

NOTE: "FAIR" INDICATES FEW OR NO CLOUDS BELOW 12,000 FEET WITH NO
SIGNIFICANT WEATHER AND/OR OBSTRUCTIONS TO VISIBILITY.

* - STATION DOES NOT REPORT WEATHER SUCH AS PRECIPITATION OR FOG.

+ - STATION NOT QUALITY CONTROLLED BY THE NATIONAL WEATHER SERVICE.
    USE DATA WITH CAUTION...ESPECIALLY DEWPOINT AND RELATIVE
    HUMIDITY OBSERVATIONS.

INZ001>003-010>013-019-020-041400-
NORTHWEST INDIANA

CITY           SKY/WX    TMP DP  RH WIND       PRES   REMARKS
GARY /AIRPORT/ PTSUNNY   73  68  83 CALM      30.02R
KNOX *+        SUNNY     68  68 100 CALM      30.01R
LA PORTE +     CLOUDY   N/A N/A N/A CALM      30.03R HAZE
MICHIGAN CITY+ CLOUDY    70  70 100 CALM      30.03R
MONTICELLO +   SUNNY     71  71  99 CALM      30.01R
RENSSELAER +   CLOUDY    70  70 100 CALM      30.02R
VALPARAISO     PTSUNNY   70  68  93 NE3       30.03R FOG

$$

LMZ046-743>745-041400-
SOUTHERN LAKE MICHIGAN

STATION/POSITION TIME  TEMP    WIND        PRES    WAVE
                       AIR SEA DIR/SP/G            HT
                 (UTC) (F)     (DEG/KT/KT) (MB)    (FT)
MICHIGAN CITY    1200   71      20/  5/  6   N/A
5NW MICH CITY    1300   71 73   50/  2/  4   N/A     1

$$

INZ004-005-014>016-021>024-041400-
NORTH CENTRAL INDIANA

CITY           SKY/WX    TMP DP  RH WIND       PRES   REMARKS
ELKHART        CLOUDY    68  66  94 N5        30.02R
GOSHEN         CLOUDY    69  66  90 CALM      30.01R
LOGANSPORT +   SUNNY     70  66  88 CALM      30.03R FOG
PERU/GRISSOM   SUNNY     72  68  88 W5        30.02R FOG
ROCHESTER +    SUNNY     73  70  88 CALM      30.03R FOG
SOUTH BEND     CLOUDY    69  66  90 CALM      30.02R
WARSAW +       MOSUNNY   70  68  94 CALM      30.02S FOG

$$

INZ006>009-017-018-025>027-041400-
NORTHEAST INDIANA

CITY           SKY/WX    TMP DP  RH WIND       PRES   REMARKS
ANGOLA *+      CLOUDY    72  63  73 N5        30.01S
AUBURN +       MOSUNNY   73  68  83 CALM      30.01S HAZE
FORT WAYNE     PTSUNNY   73  68  84 SW3       30.02R
HUNTINGTON +   PTSUNNY   72  66  82 SW3       30.02R

$$

INZ028-029-035-036-043>045-051>053-041400-
WEST CENTRAL INDIANA

CITY           SKY/WX    TMP DP  RH WIND       PRES   REMARKS
CRAWFORDSVL +  PTSUNNY   71  67  89 CALM      30.04R
GREENCASTLE +  PTSUNNY   72  66  83 CALM      30.05R HAZE
LAFAYETTE      SUNNY     71  68  90 CALM      30.01R FOG
TERRE HAUTE    MOSUNNY   74  69  85 CALM      30.04R

$$

INZ030>032-037>040-046>048-054>057-064-065-041400-
CENTRAL INDIANA

CITY           SKY/WX    TMP DP  RH WIND       PRES   REMARKS
ANDERSON       MOSUNNY   73  66  78 CALM      30.05
COLUMBUS       MOSUNNY   72  68  88 CALM      30.05R
FISHERS *+     PTSUNNY   73  70  88 SW3       30.04R
FRANKFORT +    SUNNY    N/A N/A N/A CALM      30.04R
GREENWOOD *+   MOSUNNY   75  66  73 CALM      30.04R
INDIANAPOLIS   MOSUNNY   74  67  78 W7        30.03R
-EAGLE CREEK   SUNNY     76  68  76 CALM      30.02S
KOKOMO *+      SUNNY     73  64  73 CALM      30.03R
MARION +       SUNNY     70  62  75 SW3       30.04R
MT COMFORT *+  SUNNY     72 N/A N/A S3        30.04R
SHELBYVILLE    SUNNY     76  69  79 S6        30.03R
ZIONSVILLE +   SUNNY     74  67  80 W3        30.04R

$$

INZ033-034-041-042-049-050-058-059-041400-
EAST CENTRAL INDIANA

CITY           SKY/WX    TMP DP  RH WIND       PRES   REMARKS
MUNCIE         SUNNY     73  67  81 VRB6      30.03R

$$

INZ060-061-067>069-081>083-085>088-041400-
SOUTHWEST INDIANA

CITY           SKY/WX    TMP DP  RH WIND       PRES   REMARKS
EVANSVILLE     SUNNY     75  70  84 CALM      30.04R HAZE
HUNTINGBURG *+ SUNNY     72  68  88 CALM      30.05R
WASHINGTON +   SUNNY     73  69  86 CALM      30.03S

$$

INZ062-063-066-070>080-084-089>092-041400-
SOUTH CENTRAL AND SOUTHEAST INDIANA

CITY           SKY/WX    TMP DP  RH WIND       PRES   REMARKS
BLOOMINGTON    PTSUNNY   73  69  87 CALM      30.05R
MADISON *+     SUNNY     72  70  94 CALM      30.08R
NORTH VERNON + SUNNY     72  72 100 CALM      30.06R FOG
SEYMOUR +      SUNNY     73  70  88 CALM      30.05R FOG

$$



USA.gov is the U.S. government's official web portal to all federal, state and local government web resources and services.